Location: Raven Hill Discovery Center
(45.1336°N, 85.0553°W)
Time: 04:34:25
(UTC-04:00)

Daily predictions for brighter satellites

Satellite Brightness Start Highest point End
(mag) Time Altitude Azimuth Time Altitude Azimuth Time Altitude Azimuth
USA 215 3.9 00:13:51 40° WSW 00:13:51 40° WSW 00:19:40 10° WNW
H-2A R/B 3.4 00:21:51 30° W 00:21:51 30° W 00:25:47 10° NW
Meteor 2-5 Rocket 4.0 00:16:57 10° NNW 00:22:21 68° WNW 00:22:21 68° WNW
Lacrosse 5 3.8 00:19:59 10° WNW 00:22:12 20° W 00:22:12 20° W
SL-16 R/B 2.7 00:26:09 55° NNE 00:26:09 55° NNE 00:30:33 10° NNE
Cosmos 1464 Rocket 4.1 00:28:15 68° NE 00:28:15 68° NE 00:33:53 10° N
Cosmos 540 Rocket 4.4 00:37:06 44° N 00:37:06 44° N 00:40:43 10° NNE
Cosmos 1844 Rocket 4.0 00:40:07 10° N 00:44:42 31° NE 00:44:42 31° NE
Cosmos 2360 Rocket 3.5 00:48:09 32° NE 00:48:09 32° NE 00:51:14 10° NNE
Cosmos 1980 Rocket 4.0 00:42:25 16° W 00:45:41 27° NW 00:50:28 10° N
Nadezhda 4 Rocket 4.3 00:42:32 10° N 00:47:57 59° NE 00:47:57 59° NE
Meteor 1-24 Rocket 4.4 00:52:19 10° NNW 00:57:15 55° NW 00:57:15 55° NW
Cosmos 2219 Rocket 4.3 01:11:54 16° ENE 01:11:54 16° ENE 01:13:23 10° NE
Cosmos 2333 Rocket 4.5 01:15:45 14° ENE 01:15:45 14° ENE 01:17:06 10° ENE
Cosmos 2263 Rocket 3.6 01:09:37 10° NW 01:12:49 30° WNW 01:12:49 30° WNW
Cosmos 2322 Rocket 3.4 01:15:26 35° WNW 01:15:32 35° NW 01:20:41 10° NNE
Cosmos 2237 Rocket 4.4 01:25:03 15° ENE 01:25:03 15° ENE 01:26:30 10° NE
Lacrosse 4 Rocket 4.1 01:30:52 17° NE 01:30:52 17° NE 01:31:53 10° NE
COSMOS 2428 4.0 01:31:05 35° NE 01:31:05 35° NE 01:34:22 10° NNE
ATLAS CENTAUR R/B 4.3 01:31:55 64° SSW 01:34:02 80° SE 02:01:28 10° NE
ATLAS 3B R/B 4.2 01:39:03 27° E 01:39:03 27° E 01:43:32 10° NE
Cosmos 2278 Rocket 3.1 01:48:47 10° NNW 01:53:14 45° NNE 01:53:14 45° NNE
COSMOS 2455 4.0 02:07:19 34° ENE 02:07:19 34° ENE 02:11:03 10° NE
Cosmos 1634 Rocket 4.4 02:08:38 57° NNW 02:08:38 57° NNW 02:13:54 10° N
SL-16 R/B 4.4 02:07:59 15° WNW 02:09:49 18° NW 02:13:34 10° N
CZ-3A R/B 3.5 02:26:06 79° S 02:26:26 82° SE 02:31:17 10° NE
Cosmos 2279 Rocket 4.3 02:29:50 62° NNW 02:29:50 62° NNW 02:35:02 10° N
Cosmos 1844 Rocket 4.3 02:23:50 10° NW 02:26:19 25° NW 02:26:19 25° NW
Cosmos 2360 Rocket 3.8 02:29:54 26° NW 02:30:03 26° NW 02:34:47 10° N
CZ-2C R/B 3.7 02:30:21 10° N 02:34:28 40° NW 02:34:28 40° NW
Cosmos 2266 Rocket 4.1 02:43:14 10° N 02:49:10 76° NNE 02:49:10 76° NNE
Cosmos 2219 Rocket 2.8 02:53:37 50° NNW 02:53:37 50° NNW 02:58:11 10° NNE
Cosmos 2333 Rocket 2.6 02:57:45 60° N 02:57:45 60° N 03:02:38 10° NNE
SL-16 R/B 2.9 03:00:03 46° E 03:00:03 46° E 03:04:41 10° NE
Cosmos 2297 4.2 02:56:51 10° NNW 03:01:22 57° NNW 03:01:22 57° NNW
Cosmos 2237 Rocket 2.6 03:06:52 60° NNW 03:06:52 60° NNW 03:11:47 10° NNE
Lacrosse 4 Rocket 3.8 03:07:13 18° NNW 03:07:13 18° NNW 03:09:47 10° N
Cosmos 1980 4.1 03:10:40 55° NNW 03:10:40 55° NNW 03:15:34 10° NNE
COSMOS 2428 4.2 03:13:04 25° NW 03:13:27 25° NW 03:18:07 10° N
SL-08 R/B 4.1 03:19:55 48° N 03:19:55 48° N 03:23:24 10° N
BREEZE-M DEB (TANK) 4.3 03:20:28 53° SSE 03:21:16 55° SE 03:25:48 10° ENE
ATLAS 3B R/B 2.9 03:26:18 61° WSW 03:27:33 72° NW 03:34:59 10° NE
Cosmos 1867 4.0 03:29:33 54° E 03:29:33 54° E 03:34:27 10° NE
Resurs 1-4 Rocket 3.9 03:26:39 10° NE 03:30:45 23° E 03:32:24 20° ESE
ATLAS CENTAUR R/B 4.1 03:28:58 10° NNW 03:32:20 20° NE 03:35:30 10° E
ERS-2 4.3 03:33:32 10° NE 03:35:50 23° ENE 03:35:50 23° ENE
Cosmos 2278 Rocket 4.1 03:33:28 10° NW 03:35:03 17° WNW 03:35:03 17° WNW
Cosmos 1269 Rocket 4.1 03:41:10 69° E 03:41:10 69° E 03:46:19 10° NNE
CZ-4C R/B 2.3 03:41:23 60° ESE 03:41:23 60° ESE 03:47:17 10° NE
Cosmos 1603 4.4 03:40:49 41° SE 03:41:28 42° ESE 03:46:50 10° NE
Cosmos 1607 3.8 03:41:28 74° SSE 03:41:52 78° ESE 03:48:02 10° NE
AQUA 4.0 03:39:39 10° NNE 03:43:55 70° NNE 03:43:55 70° NNE
ARIANE 5 R/B 3.6 03:39:55 10° NNE 03:44:46 37° E 03:45:54 33° SE
COSMOS 2455 3.7 03:50:28 36° WNW 03:51:23 38° NW 03:57:00 10° NNE
Cosmos 468 4.5 03:52:16 76° NW 03:52:16 76° NW 03:57:30 10° NNE
Okean O Rocket 4.5 03:53:39 10° ENE 03:54:52 11° E 03:56:04 10° ESE
Cosmos 1151 Rocket 3.3 03:59:59 63° N 03:59:59 63° N 04:03:43 10° N
Aureole 2 Rocket 4.0 04:02:01 36° NNW 04:02:01 36° NNW 04:04:57 10° N
SL-16 R/B 2.6 04:03:00 26° SSE 04:06:38 73° ENE 04:12:50 10° NNW
BREEZE-M DEB (TANK) 3.4 03:58:15 10° WNW 04:07:29 69° WSW 04:07:29 69° WSW
IRS-1C 4.0 04:04:45 10° N 04:10:05 73° WNW 04:10:39 67° WSW
USA 234 3.2 04:06:02 10° NE 04:12:38 79° SE 04:14:35 49° SW
USA 238 DEB 3.8 04:11:20 48° WSW 04:13:25 73° NW 04:20:31 10° NE
USA 238 3.8 04:11:27 48° WSW 04:13:32 73° NW 04:20:37 10° NE
ERBS 3.6 04:14:53 41° ENE 04:14:53 41° ENE 04:17:22 10° NE
Cosmos 1943 4.4 04:12:12 24° SSE 04:14:40 34° ESE 04:19:44 10° NE
Exosat Rocket 4.5 04:09:56 10° NW 04:13:21 35° WNW 04:13:21 35° WNW
Cosmos 2251 Rocket 4.4 04:14:04 32° SSE 04:15:52 43° ESE 04:20:50 10° NNE
S3M 3.9 04:15:52 52° SSW 04:17:31 79° W 04:23:51 10° N
SeaSat 1 3.2 04:14:29 10° SE 04:19:15 52° ENE 04:24:03 10° NNW
UNK 3.7 04:19:51 53° SSE 04:20:57 82° ENE 04:25:35 10° NNW
Cosmos 1300 2.8 04:22:33 73° NNE 04:22:33 73° NNE 04:26:06 10° N
Cosmos 1110 Rocket 4.1 04:18:36 10° NNW 04:23:49 72° ENE 04:28:45 12° SSE
Cosmos 2369 Rocket 2.7 04:19:01 10° NNW 04:24:34 59° ENE 04:30:06 10° SE
Cosmos 158 Rocket 3.9 04:24:00 56° S 04:25:05 80° ESE 04:30:07 10° NNE
CBERS-1 4.5 04:20:32 10° N 04:25:21 43° WNW 04:25:45 42° W
CZ-2D R/B 2.3 04:21:00 10° NNE 04:26:18 67° ESE 04:28:18 37° S
Cosmos 1726 2.1 04:29:41 81° NE 04:29:41 81° NE 04:33:17 10° N
NOSS 3-2 (A) 3.6 04:28:40 42° SSW 04:30:53 73° SE 04:37:34 10° NE
Cosmos 1340 Rocket 3.2 04:27:26 10° NNW 04:30:44 52° NW 04:30:44 52° NW
Cosmos 1455 4.1 04:33:30 15° SE 04:35:54 28° E 04:39:16 10° NNE
Cosmos 1869 Rocket 3.5 04:32:03 10° NNW 04:36:27 69° W 04:36:55 63° SW
Cosmos 1271 Rocket 2.8 04:36:55 65° WNW 04:36:55 65° WNW 04:40:57 10° N
NOSS 3-3 (A) 4.4 04:30:10 10° NW 04:37:36 81° SW 04:45:32 10° SSE
NOSS 3-3 (C) 4.4 04:30:17 10° NW 04:37:42 82° SW 04:45:39 10° SSE
Cosmos 2219 Rocket 4.4 04:35:30 10° WNW 04:37:53 13° NW 04:40:17 10° NNW
Cosmos 1553 Rocket 4.1 04:37:19 41° SW 04:39:06 55° WNW 04:45:08 10° N
Cosmos 1745 Rocket 4.1 04:34:09 10° NNW 04:40:20 55° W 04:42:42 36° SSW
Cosmos 2333 Rocket 4.3 04:39:45 12° WNW 04:42:14 15° NW 04:45:35 10° N
Cosmos 1709 Rocket 4.2 04:36:06 10° N 04:42:30 75° E 04:48:48 10° SSE
Cosmos 1386 Rocket 4.4 04:36:51 10° NNW 04:43:10 70° W 04:46:47 26° S
SL-16 R/B 3.4 04:41:56 25° W 04:43:33 29° NW 04:48:31 10° N
NOSS 3-2 (C) 3.6 04:42:57 34° SSW 04:45:47 74° ESE 04:52:29 10° NE
MOS 1-B 4.4 04:44:14 10° NNE 04:50:03 78° ESE 04:53:45 23° S
Meteor 1-27 4.1 04:47:53 34° SSW 04:50:22 79° WNW 04:55:58 10° N
Cosmos 839 Rocket 4.3 04:42:47 10° NW 04:51:14 73° WSW 04:57:55 10° SSE
Cosmos 2237 Rocket 4.3 04:48:42 11° WNW 04:51:16 15° NW 04:54:25 10° N
Coronas F rocket 3.2 04:50:46 10° NNW 04:51:59 23° NNW 04:51:59 23° NNW
CENTAUR R/B 4.3 04:51:45 10° SSE 04:56:36 25° ESE 05:01:54 10° ENE
Cosmos 1943 Rocket 3.2 04:53:33 10° NNW 04:59:04 49° ENE 05:04:33 10° SE
UNKNOWN OBJECT B 2.6 05:01:45 10° N 05:05:27 68° WNW 05:06:33 42° SW
EO 1 Del DPAF 3.5 05:06:19 41° SW 05:07:04 47° W 05:10:51 10° NNW
Cosmos 1356 Rocket 3.8 05:03:22 10° NNW 05:07:08 37° W 05:07:25 37° WSW
IRS-1D 4.0 05:03:17 10° N 05:08:10 45° WNW 05:10:24 29° WSW
ARGOS Delta rocket 3.7 05:04:38 10° NNE 05:09:05 74° E 05:12:24 17° S
Cosmos 1869 4.1 05:06:12 13° SSE 05:09:35 51° E 05:13:28 10° NNE
ERS-2 3.5 05:07:22 10° NNW 05:10:24 24° WNW 05:10:40 24° WNW
Resurs 1-4 Rocket 2.4 05:05:47 10° N 05:10:53 51° WNW 05:13:28 27° SW
Meteor 1-4 Rocket 4.3 05:11:38 18° WNW 05:11:38 18° WNW 05:13:49 10° NNW
Cosmos 389 Rocket 4.1 05:08:15 10° SSE 05:11:23 32° E 05:14:33 10° NNE
Cosmos 494 Rocket 3.9 05:08:30 25° SSW 05:11:36 84° WNW 05:16:54 10° NNE
MTI 3.8 05:10:50 41° SSW 05:11:41 57° WSW 05:15:01 10° NNW
ATLAS CENTAUR R/B 1.2 05:07:34 10° NW 05:11:56 67° WSW 05:15:53 10° SSE
Cosmos 1302 Rocket 3.9 05:09:33 10° NNW 05:14:51 80° WSW 05:20:03 10° SSE
Cosmos 1825 4.2 05:11:36 10° NNE 05:15:00 30° ENE 05:18:22 10° SE
Cosmos 1733 Rocket 3.0 05:13:24 10° N 05:17:48 89° W 05:22:11 10° S
Abrixas rocket 3.0 05:16:36 25° WNW 05:18:15 47° N 05:21:30 10° ENE
ATLAS 3B R/B 4.3 05:13:33 10° W 05:19:34 26° NNW 05:25:31 10° NNE
Cosmos 1707 Rocket 4.4 05:19:11 27° WSW 05:20:33 33° WNW 05:24:38 10° N
ARIANE 5 R/B 3.5 05:19:12 10° N 05:23:48 32° WNW 05:26:13 22° WSW
Meteor 2-3 Rocket 4.3 05:19:51 10° NNW 05:25:06 37° W 05:29:01 17° SSW
Cosmos 1408 4.1 05:23:09 10° N 05:26:41 39° ENE 05:30:13 10° SSE
BREEZE-M DEB (TANK) 3.7 05:23:45 12° WNW 05:27:13 63° SSW 05:35:39 10° SE
Iridium 2 4.2 05:23:55 10° NNW 05:27:30 39° W 05:29:14 24° SW
CZ-4C R/B 3.5 05:26:34 16° W 05:30:19 32° NW 05:35:53 10° NNE
ADEOS II 3.7 05:25:54 10° NNE 05:30:42 35° E 05:35:29 10° SSE
Okean-O 4.2 05:27:09 10° NNE 05:31:13 34° E 05:35:16 10° SSE
ATLAS 5 CENTAUR R/B 2.4 05:27:25 15° SSW 05:31:25 57° ESE 05:36:32 10° NE
Okean O Rocket 1.6 05:27:19 10° N 05:31:48 80° WNW 05:35:52 12° SSW
Cosmos 2315 Rocket 4.1 05:27:27 15° SSW 05:32:38 58° WNW 05:38:50 10° N
Cosmos 1892 3.4 05:32:21 10° NNW 05:35:51 33° W 05:37:56 19° SW
PSLV R/B 4.0 05:39:06 22° SW 05:40:46 38° S 05:43:57 10° ESE
CZ-2C R/B 3.8 05:36:38 10° S 05:40:58 51° W 05:45:18 10° NNW
Cosmos 1908 Rocket 3.7 05:39:06 10° N 05:43:32 78° E 05:47:53 10° SSE
Geosat 4.4 05:39:47 10° NNE 05:44:47 63° ESE 05:49:46 10° SSW
Cosmos 1184 Rocket 3.0 05:42:30 10° NNW 05:45:51 50° W 05:49:09 10° S
MOZ.5/SAFIR/RUBIN 5/SL-8 4.0 05:41:26 10° S 05:45:51 45° W 05:50:20 10° NNW
Sich 1 Rocket 3.5 05:42:28 10° N 05:46:53 78° W 05:51:16 10° S
BREEZE-M DEB (TANK) 1.7 05:45:35 15° WNW 05:47:20 57° SSW 05:49:51 10° SE
COSMOS 2406 4.2 05:42:22 10° S 05:47:51 47° ESE 05:53:21 10° NE
IRS-1C Rocket 4.2 05:42:39 10° N 05:47:51 60° WNW 05:53:01 10° SSW
PSLV R/B 4.1 05:45:00 10° N 05:48:34 45° WNW 05:51:40 13° SW
Thor Agena Rocket 3.5 05:43:54 10° S 05:49:01 73° WSW 05:54:14 10° NNW
SL-16 R/B 3.8 05:48:06 15° WSW 05:50:52 19° W 05:55:11 10° NW
ERBS 4.2 05:48:19 11° WNW 05:50:59 22° NNW 05:53:51 10° NNE
USA 234 4.0 05:49:12 10° NE 05:55:21 44° NNW 06:01:29 10° W
Pageos (A) 3.4 05:53:51 10° NNW 05:56:00 38° W 05:58:02 10° SSW
SeaSat 1 3.5 05:53:03 10° SSW 05:57:00 24° WSW 06:00:59 10° NW
Cosmos 1943 3.9 05:54:02 13° WSW 05:58:38 40° NW 06:03:57 10° NNE
CZ-4B DEB 4.2 05:54:19 10° N 05:59:46 68° WNW 06:05:10 10° SSW
USA 32 4.1 05:57:32 10° S 06:02:46 86° E 06:08:03 10° N
Cosmos 1703 Rocket 3.8 05:58:24 10° S 06:02:52 79° E 06:07:23 10° N
CZ-2D R/B 3.7 06:02:11 10° NNW 06:05:50 19° WNW 06:09:28 10° WSW
CZ-4B R/B 3.3 06:01:50 10° N 06:07:01 54° WNW 06:12:09 10° SW
Cosmos 2369 Rocket 3.3 06:03:56 10° NW 06:08:07 22° W 06:12:18 10° SSW
Cosmos 1455 3.6 06:08:34 10° SW 06:11:38 22° WNW 06:14:46 10° NNW
SL-27 R/B 2.5 06:08:10 10° SSW 06:11:50 83° WNW 06:15:30 10° NNE
Cosmos 1992 Rocket 4.0 06:08:50 10° NNW 06:14:04 77° WSW 06:19:17 10° SSE
Meteor PRIRODA 3.7 06:16:25 10° NNE 06:20:12 89° ESE 06:23:58 10° SSW
BREEZE-M DEB (TANK) 4.3 06:16:12 10° WNW 06:20:23 53° NNE 06:30:16 10° E
CZ-4B R/B 3.7 06:19:13 10° N 06:22:21 28° WNW 06:25:32 10° SW
Meteor 1-31 Rocket 3.3 06:21:46 10° NNE 06:25:34 63° E 06:29:19 10° S
